Weather History for Madison, SD

Change the Weather History Date:

Friday, January 17, 2014

  Actual Average Record
Temperature  
Mean Temperature 12 °F -  
Max Temperature 26 °F 21 °F 30 °F (2013)
Min Temperature 0 °F 3 °F 0 °F (2014)
Degree Days  
Heating Degree Days 53    
Moisture  
Dew Point 4 °F    
Average Humidity 75    
Maximum Humidity 100    
Minimum Humidity 45    
Precipitation  
Precipitation 0.00 in - - ()
Sea Level Pressure  
Sea Level Pressure 29.96 in    
Wind  
Wind Speed 13 mph (West)    
Max Wind Speed 22 mph    
Max Gust Speed 30 mph    
Visibility 10 miles    
Events      
Averages and records for this station are not official NWS values.
T = Trace of Precipitation, MM = Missing Value Source: NWS Daily Summary

Daily Weather History Graph

Daily Weather History Graph

Search for Another Location

Airport:

Trip Planner

Search our weather history database for the weather conditions in past years. The results will help you decide how hot, cold, wet, or windy it might be!

Date:

Astronomy

Jan. 17, 2014 Rise Set
Actual Time 7:58 AM CST 5:18 PM CST
Civil Twilight 7:26 AM CST 5:50 PM CST
Nautical Twilight 6:51 AM CST 6:26 PM CST
Astronomical Twilight 6:16 AM CST 7:00 PM CST
Moon 7:11 PM CST (1/17) 8:22 AM CST (1/17)
Length of Visible Light 10h 23m
Length of Day
9h 19m
Full, 98% of the Moon is Illuminated
Jan 17
Full
Jan 23
Last Quarter
Jan 30
New
Feb 6
First Quarter
Feb 14
Full

Hourly Weather History & Observations

Time (CST) Temp. Windchill Dew Point Humidity Pressure Visibility Wind Dir Wind Speed Gust Speed Precip Events Conditions
12:05 AM 3.2 °F -17.6 °F -4.0 °F 72% 30.04 in 10.0 mi NW 19.6 mph 24.2 mph N/A   Clear
12:25 AM 3.2 °F -17.1 °F -4.0 °F 72% 30.04 in 10.0 mi NNW 18.4 mph 26.5 mph N/A   Clear
12:45 AM 1.4 °F -18.8 °F -4.0 °F 78% 30.04 in 10.0 mi NNW 17.3 mph 24.2 mph N/A   Clear
1:05 AM 1.4 °F -19.9 °F -4.0 °F 78% 30.04 in 10.0 mi NNW 19.6 mph 26.5 mph N/A   Clear
1:25 AM 1.4 °F -21.0 °F -4.0 °F 78% 30.04 in 10.0 mi NNW 21.9 mph 29.9 mph N/A   Clear
1:45 AM 3.2 °F -18.1 °F -4.0 °F 72% 30.04 in 10.0 mi NNW 20.7 mph 29.9 mph N/A   Clear
2:05 AM 1.4 °F -18.8 °F -4.0 °F 78% 30.04 in 10.0 mi NNW 17.3 mph 24.2 mph N/A   Clear
2:25 AM 1.4 °F -19.4 °F -5.8 °F 72% 30.04 in 10.0 mi NNW 18.4 mph 24.2 mph N/A   Clear
2:45 AM 1.4 °F -20.5 °F -5.8 °F 72% 30.04 in 10.0 mi NNW 20.7 mph 27.6 mph N/A   Clear
3:05 AM 1.4 °F -20.5 °F -5.8 °F 72% 30.05 in 10.0 mi NNW 20.7 mph 27.6 mph N/A   Clear
3:25 AM -0.4 °F -19.9 °F -5.8 °F 78% 30.05 in 10.0 mi NNW 15.0 mph - N/A   Clear
3:45 AM -0.4 °F -17.6 °F -5.8 °F 78% 30.06 in 10.0 mi NNW 11.5 mph - N/A   Clear
4:05 AM -0.4 °F -17.6 °F -5.8 °F 78% 30.06 in 10.0 mi NNW 11.5 mph - N/A   Clear
4:25 AM -0.4 °F -16.7 °F -5.8 °F 78% 30.06 in 10.0 mi NW 10.4 mph - N/A   Clear
4:45 AM -0.4 °F -15.7 °F -4.0 °F 85% 30.07 in 10.0 mi NW 9.2 mph - N/A   Clear
5:05 AM -0.4 °F -17.6 °F -4.0 °F 85% 30.06 in 10.0 mi NNW 11.5 mph - N/A   Clear
5:25 AM -0.4 °F -17.6 °F -5.8 °F 78% 30.06 in 10.0 mi NNW 11.5 mph - N/A   Clear
5:45 AM -0.4 °F -17.6 °F -5.8 °F 78% 30.07 in 10.0 mi NNW 11.5 mph - N/A   Clear
6:05 AM -0.4 °F -18.4 °F -7.6 °F 72% 30.08 in 10.0 mi NNW 12.7 mph - N/A   Clear
6:25 AM -0.4 °F -16.7 °F -7.6 °F 72% 30.08 in 10.0 mi NW 10.4 mph - N/A   Clear
6:45 AM -0.4 °F -13.4 °F -7.6 °F 72% 30.09 in 10.0 mi NW 6.9 mph - N/A   Clear
7:05 AM -0.4 °F -15.7 °F -7.6 °F 72% 30.09 in 10.0 mi NW 9.2 mph - N/A   Clear
7:25 AM -0.4 °F -17.6 °F -5.8 °F 78% 30.08 in 10.0 mi NW 11.5 mph - N/A   Clear
7:45 AM -0.4 °F -17.6 °F -4.0 °F 85% 30.06 in 10.0 mi NNW 11.5 mph - N/A   Clear
8:05 AM -0.4 °F -16.7 °F -5.8 °F 78% 30.06 in 10.0 mi NW 10.4 mph - N/A   Clear
8:25 AM -0.4 °F -17.6 °F -5.8 °F 78% 30.07 in 10.0 mi NNW 11.5 mph - N/A   Clear
8:45 AM 1.4 °F -14.5 °F -4.0 °F 78% 30.06 in 10.0 mi NNW 10.4 mph - N/A   Clear
9:05 AM 3.2 °F -10.3 °F -2.2 °F 78% 30.06 in 10.0 mi NNW 8.1 mph - N/A   Clear
9:25 AM 5.0 °F -6.9 °F -2.2 °F 72% 30.06 in 10.0 mi NW 6.9 mph - N/A   Clear
9:45 AM 5.0 °F -5.6 °F -0.4 °F 78% 30.07 in 10.0 mi NW 5.8 mph - N/A   Clear
10:05 AM 6.8 °F -3.5 °F -0.4 °F 72% 30.07 in 10.0 mi NW 5.8 mph - N/A   Clear
10:25 AM 8.6 °F -2.6 °F -0.4 °F 67% 30.06 in 10.0 mi NNW 6.9 mph - N/A   Clear
10:45 AM 8.6 °F -2.6 °F -0.4 °F 67% 30.07 in 10.0 mi NW 6.9 mph - N/A   Clear
11:05 AM 10.4 °F -0.4 °F -0.4 °F 62% 30.07 in 10.0 mi NW 6.9 mph - N/A   Clear
11:25 AM 10.4 °F 2.2 °F -0.4 °F 62% 30.06 in 10.0 mi WNW 4.6 mph - N/A   Clear
11:45 AM 12.2 °F 2.9 °F -0.4 °F 57% 30.05 in 10.0 mi WNW 5.8 mph - N/A   Clear
12:05 PM 14.0 °F 6.5 °F -2.2 °F 49% 30.04 in 10.0 mi NW 4.6 mph - N/A   Clear
12:25 PM 14.0 °F 3.9 °F -0.4 °F 53% 30.03 in 10.0 mi WNW 6.9 mph - N/A   Clear
12:45 PM 15.8 °F 8.6 °F -0.4 °F 49% 30.02 in 10.0 mi WSW 4.6 mph - N/A   Clear
1:05 PM 15.8 °F 7.2 °F -0.4 °F 49% 30.01 in 10.0 mi WSW 5.8 mph - N/A   Clear
1:25 PM 17.6 °F 9.3 °F -0.4 °F 45% 30.00 in 10.0 mi WSW 5.8 mph - N/A   Clear
1:45 PM 17.6 °F 9.3 °F 1.4 °F 49% 30.00 in 10.0 mi WSW 5.8 mph - N/A   Clear
2:05 PM 17.6 °F 8.2 °F 6.8 °F 63% 29.98 in 10.0 mi WSW 6.9 mph - N/A   Clear
2:25 PM 17.6 °F 7.3 °F 6.8 °F 63% 29.98 in 10.0 mi SW 8.1 mph - N/A   Clear
2:45 PM 17.6 °F 9.3 °F 6.8 °F 63% 29.97 in 10.0 mi WSW 5.8 mph - N/A   Clear
3:05 PM 17.6 °F 9.3 °F 6.8 °F 63% 29.96 in 10.0 mi SSW 5.8 mph - N/A   Clear
3:25 PM 17.6 °F 8.2 °F 8.6 °F 68% 29.95 in 10.0 mi SSW 6.9 mph - N/A   Clear
3:45 PM 17.6 °F 7.3 °F 8.6 °F 68% 29.95 in 10.0 mi SSW 8.1 mph - N/A   Clear
4:05 PM 17.6 °F 5.7 °F 10.4 °F 73% 29.94 in 10.0 mi SSW 10.4 mph - N/A   Clear
4:25 PM 17.6 °F 5.7 °F 10.4 °F 73% 29.93 in 10.0 mi SSW 10.4 mph - N/A   Clear
4:45 PM 17.6 °F 6.4 °F 12.2 °F 79% 29.93 in 10.0 mi South 9.2 mph - N/A   Clear
5:05 PM 17.6 °F 8.2 °F 14.0 °F 86% 29.92 in 10.0 mi SSW 6.9 mph - N/A   Mostly Cloudy
5:25 PM 17.6 °F 8.2 °F 14.0 °F 86% 29.93 in 10.0 mi SSW 6.9 mph - N/A   Overcast
5:45 PM 19.4 °F 10.4 °F 15.8 °F 86% 29.93 in 10.0 mi SSW 6.9 mph - N/A   Overcast
6:05 PM 19.4 °F 8.6 °F 15.8 °F 86% 29.92 in 10.0 mi South 9.2 mph - N/A   Overcast
6:25 PM 19.4 °F 8.6 °F 17.6 °F 93% 29.90 in 10.0 mi South 9.2 mph - N/A   Overcast
6:45 PM 19.4 °F 9.5 °F 17.6 °F 93% 29.88 in 10.0 mi South 8.1 mph - N/A   Overcast
7:05 PM 19.4 °F 8.6 °F 17.6 °F 93% 29.86 in 10.0 mi South 9.2 mph - N/A   Overcast
7:25 PM 19.4 °F 7.9 °F 19.4 °F 100% 29.84 in 10.0 mi South 10.4 mph - N/A   Mostly Cloudy
7:45 PM 19.4 °F 6.6 °F 17.6 °F 93% 29.82 in 10.0 mi South 12.7 mph - N/A   Mostly Cloudy
8:05 PM 19.4 °F 7.9 °F 19.4 °F 100% 29.81 in 10.0 mi SSE 10.4 mph - N/A   Overcast
8:25 PM 21.2 °F 9.5 °F 19.4 °F 93% 29.79 in 10.0 mi South 11.5 mph - N/A   Overcast
8:45 PM 23.0 °F 11.1 °F 19.4 °F 86% 29.77 in 10.0 mi South 12.7 mph - N/A   Overcast
9:05 PM 23.0 °F 10.6 °F 19.4 °F 86% 29.74 in 10.0 mi South 13.8 mph - N/A   Overcast
9:25 PM 23.0 °F 10.6 °F 17.6 °F 80% 29.71 in 10.0 mi South 13.8 mph - N/A   Mostly Cloudy
9:45 PM 23.0 °F 9.2 °F 17.6 °F 80% 29.69 in 10.0 mi South 17.3 mph - N/A   Overcast
10:05 PM 23.0 °F 9.6 °F 17.6 °F 80% 29.68 in 10.0 mi South 16.1 mph 23.0 mph N/A   Overcast
10:25 PM 24.8 °F 13.4 °F 17.6 °F 74% 29.67 in 10.0 mi South 12.7 mph - N/A   Overcast
10:45 PM 24.8 °F 13.4 °F 19.4 °F 80% 29.65 in 10.0 mi South 12.7 mph - N/A   Overcast
11:05 PM 24.8 °F 13.4 °F 17.6 °F 74% 29.62 in 10.0 mi South 12.7 mph - N/A   Mostly Cloudy
11:25 PM 24.8 °F 14.6 °F 17.6 °F 74% 29.60 in 10.0 mi SSW 10.4 mph - N/A   Mostly Cloudy
11:45 PM 26.6 °F 15.2 °F 17.6 °F 69% 29.59 in 10.0 mi SSW 13.8 mph - N/A   Scattered Clouds